Other Public Products
Issued by NWS Grand Forks, ND

Home | Current Version | Previous Version | Text Only | Print | Product List | Glossary Off
Versions: 1 2 3 4 5 6 7 8 9 10 11 12 13 14 15 16 17 18 19 20 21 22 23 24 25 26 27 28 29 30 31 32 33 34 35 36 37 38 39 40 41 42 43 44 45 46 47 48 49 50

000
FPUS83 KFGF 271731
OPUFGF
PRAIRIE TO PINES WEATHER ROUNDUP
NATIONAL WEATHER SERVICE EASTERN NORTH DAKOTA/GRAND FORKS ND
1200 PM CDT THU APR 27 2017

 **SATELLITE DATA USED TO AUGMENT SKY COVER AT AUTOMATED STATIONS**
 *****  WEATHER ACROSS EASTERN NORTH DAKOTA  *****

CITY           SKY/WX    TMP DP  RH WIND       PRES   REMARKS
GRAND FORKS    FAIR      34  24  67 N15       29.70F WCI  24
GRAND FORKS AF FAIR      34  21  58 N15       29.70F WCI  25
GRAND CITY NWS NOT AVBL
BUXTON           N/A     34  27  75 N12         N/A
DEVILS LAKE    FAIR      39  23  52 N18       29.72S
FARGO          CLOUDY    31  23  72 N15       29.70R WCI  20
WAHPETON ARPT  CLOUDY    32  25  74 NW16G22   29.69R WCI  21
$$

 *****  WEATHER ACROSS CENTRAL AND WESTERN NORTH DAKOTA  *****

CITY           SKY/WX    TMP DP  RH WIND       PRES   REMARKS
JAMESTOWN      FAIR      40  27  59 N15G23    29.70S
BISMARCK       FAIR      44  22  41 NE9       29.74S
MINOT          FAIR      43  14  31 N9        29.76F
MINOT AFB      FAIR      42  13  31 N12G17    29.75F
GARRISON       NOT AVBL
WILLISTON      FAIR      45  22  40 E13       29.75F
DICKINSON      FAIR      40  25  55 NE9       29.69S
HETTINGER      CLOUDY    35  26  69 E10       29.71S
$$

 *****  OTHER OBSERVATIONS NORTHEAST NORTH DAKOTA  *****

CITY           SKY/WX    TMP DP  RH WIND       PRES   REMARKS
WALHALLA       NOT AVBL
LANGDON        FAIR      45  25  45 N23       29.69F
CAVALIER       FAIR      41  25  52 N20G29    29.70S
GRAFTON        FAIR      37  25  60 N17G25    29.71F
CANDO          NOT AVBL
FORT TOTTEN      N/A     40  23  50 N7        29.95S
ROLLA          FAIR      39  19  45 N21G26    29.75R
RUGBY          NOT AVBL
 ***** THE ABOVE OBSERVATIONS ARE NON NWS ARE NOT QUALITY
        CONTROLLED AND MAY MIS-REPORT RAIN FOR SNOW...
$$

 *****  OTHER OBSERVATIONS SOUTHEAST NORTH DAKOTA *****

CITY           SKY/WX    TMP DP  RH WIND       PRES   REMARKS
COOPERSTOWN    FAIR      37  28  70 N16G23    29.69F
VALLEY CITY    MIX PCPN  36  30  80 N15       29.70F
OAKES          NOT AVBL
GWINNER        SUNNY     32  23  69 MISG      29.72R
BUFFALO          N/A     33  21  61 SE12        N/A  WCI  24
WYNDMERE         N/A     32  25  74 N20         N/A  WCI  20
 ***** THE ABOVE OBSERVATIONS ARE NON NWS ARE NOT QUALITY
       CONTROLLED AND MAY MIS-REPORT RAIN FOR SNOW...
$$

  *****  WEATHER ACROSS NORTHERN MINNESOTA  *****

CITY           SKY/WX    TMP DP  RH WIND       PRES   REMARKS
FLAG ISLAND    LGT SNOW  27  21  80 N18       29.65S WCI  13
WARROAD        CLOUDY    28  23  80 N9G16     29.67R WCI  20
ROSEAU         CLOUDY    30  23  74 NE14      29.66S WCI  20
HALLOCK        CLOUDY    37  23  56 N14       29.68F
THF RVR FALLS  CLOUDY    31  21  66 N18       29.67S WCI  19
HALSTAD          N/A     29  23  77 N14         N/A  WCI  19
FOSSTON        CLOUDY    30  19  64 N18       29.64S WCI  18
BAUDETTE       CLOUDY    26  16  65 N18       29.62R WCI  13
WASKISH        CLOUDY    27  18  69 NW12G17   29.61S WCI  16
CROOKSTON      CLOUDY    30  25  80 N16       29.70S WCI  19
$$
  *****  WEATHER ACROSS CENTRAL AND WEST MINNESOTA  *****

CITY           SKY/WX    TMP DP  RH WIND       PRES   REMARKS
BEMIDJI        CLOUDY    26  19  75 N16       29.60S WCI  13
PARK RAPIDS    CLOUDY    27  18  69 NW16      29.59S WCI  15
WADENA         CLOUDY    27  21  80 N9        29.61R WCI  17
DETROIT LAKES  PTSUNNY   28  23  80 N7G21     29.65R WCI  21
MOORHEAD       PTSUNNY   28  23  80 N9        29.69F WCI  20
FERGUS FALLS   CLOUDY    28  21  74 N16G28    29.67R WCI  17
ELBOW LAKE     CLOUDY    29  22  73 N17G23    29.65R WCI  18
MORRIS MN      PTSUNNY   34  21  60 N23G31    29.64S WCI  22
STAPLES        CLOUDY    25  19  80 NW12      29.61R WCI  14
WHEATON        CLOUDY    30  21  69 NW16G25   29.71R WCI  19
$$
  *****  WEATHER ELSEWHERE ACROSS MINNESOTA  *****

CITY           SKY/WX    TMP DP  RH WIND       PRES   REMARKS
DULUTH         CLOUDY    25  20  81 NW15G21   29.48F WCI  13
INTRNTL FALLS  CLOUDY    25  14  63 N12       29.58S WCI  14
ELY            FLURRIES  23  16  74 N9G17     29.48F WCI  13
CLOQUET        CLOUDY    27  19  74 NW12G17   29.51S WCI  16
BRAINERD       CLOUDY    27  20  75 NW15      29.59R WCI  15
HIBBING        CLOUDY    24  17  74 NW16      29.52F WCI  11
ALEXANDRIA     CLOUDY    29  23  78 N13       29.62R WCI  19
SAINT CLOUD    CLOUDY    29  24  82 NW13      29.60R WCI  19
MINNEAPOLIS    CLOUDY    34  26  72 NW12      29.58R
$$

  *****  WEATHER ACROSS SOUTH DAKOTA  *****

CITY           SKY/WX    TMP DP  RH WIND       PRES   REMARKS
SIOUX FALLS    CLOUDY    38  29  70 NW17      29.70S
BROOKINGS      CLOUDY    33  24  69 N18       29.68R WCI  22
WATERTOWN      CLOUDY    32  25  75 N20       29.67R WCI  20
HURON          CLOUDY    37  27  67 N15       29.73S
SISSETON         N/A     32  25  75 N18G29    29.69R WCI  20
ABERDEEN       FAIR      35  22  58 N21       29.74R WCI  24
MITCHELL       CLOUDY    41  28  60 N13       29.74S
PIERRE         CLOUDY    39  28  64 N9        29.72S
MOBRIDGE       FAIR      45  26  47 N10       29.70R
RAPID CITY     CLOUDY    42  32  67 SE7       29.66S
$$

  *****  SOME WEATHER IN NEARBY STATES *****

CITY           SKY/WX    TMP DP  RH WIND       PRES   REMARKS
GLASGOW MT     CLOUDY    48  25  40 SE15      29.68S
GREAT FALLS MT LGT RAIN  42  36  79 NW13      29.67R
CHEYENNE WY    CLOUDY    41  36  82 E6        29.56S
SCOTTSBLUFF NE CLOUDY    47  38  71 CALM      29.57S
OMAHA NE       FAIR      47  33  58 W5        29.75R
DES MOINES IA  CLOUDY    41  31  67 W15       29.71R
DAVENPORT IA   CLOUDY    40  35  83 W18       29.65R
CHICAGO IL     CLOUDY    46  37  71 W20G28    29.58R
EAU CLAIRE WI  CLOUDY    34  27  75 W14       29.52R WCI  25
LA CROSSE WI   CLOUDY    42  33  70 W10       29.54R
$$

  *****  SOME NATIONAL WEATHER *****

CITY           SKY/WX    TMP DP  RH WIND       PRES   REMARKS
LA GUARDIA NY  CLOUDY    68  57  68 S9        29.90S
RALEIGH NC     PTSUNNY   80  58  46 SW13G23   29.88F
ATLANTA GA     LGT RAIN  71  68  90 S9        29.82F
NEW ORLEANS LA FAIR      71  60  68 NW9       29.84F
OKLAHOMA CITY  PTSUNNY   61  46  57 S12       29.75F
ALBUQUERQUE NM PTSUNNY   65  31  28 W28G40    29.70F
SALT LAKE CITY PTSUNNY   46  28  49 NW20      29.84R
LOS ANGELES CA PTSUNNY   64  56  75 W8        29.82S
BOISE ID       CLOUDY    43  32  65 W17       29.96R
SEATTLE WA     PTSUNNY   49  40  71 S13       30.08S
$$

*** WEATHER ACROSS MANITOBA...SASKATCHEWAN AND ONTARIO ***
                ***ONTARIO***

CITY           SKY/WX    TMP DP  RH WIND       PRES   REMARKS
GERALDTON      SLEET     25  23  93 NE13G22   29.37F VSB 1   WCI  13
THUNDER BAY    LGTSLEET  23  18  80 NW10      29.44S WCI  12
SIOUX LOOKOUT  FLURRIES  21  14  73 NE7       29.57F WCI  13
TORONTO        MOSUNNY   70  57  64 SE13      29.60F
BIG TROUT LK   CLOUDY    27   3  36 NE14G24   29.89F WCI  15
PICKLE LAKE    FRZ RAIN  19  16  86 NE12G24   29.63F DRFTSNOWWCI   7
DRYDEN         LGT SNOW  23  19  86 NE10G18   29.57F VSB 3/4 WCI  12
KENORA         LGT SNOW  23  19  86 NE10G18   29.62F DRFTSNOWWCI  12
$$
                *** MANITOBA***

CITY           SKY/WX    TMP DP  RH WIND       PRES   REMARKS
BRANDON        MOSUNNY   41  14  33 NE16G23   29.80F
DAUPHIN        SUNNY     39   9  28 N12G17    29.88S
ISLAND LAKE    PTSUNNY   36   0  21 NE10      29.96F
PILOT MOUND      N/A     41  19  42 N21G28      N/A
THE PAS        CLOUDY    39   7  26 E9G18     29.97F
THOMPSON       MOSUNNY   36   0  21 VRB3      30.04F
WINNIPEG       PTSUNNY   39  23  52 NE24G31   29.74S
LYNN LAKE      SUNNY     39   9  28 SE9       30.00F
CHURCHILL      SUNNY     34  12  40 S5        30.12S
GILLAM         MOSUNNY   34   5  29 NE7       30.09F
$$
                ***SASKATCHEWAN***

CITY           SKY/WX    TMP DP  RH WIND       PRES   REMARKS
ESTEVAN        MOSUNNY   43  14  31 E10G18    29.79F
KINDERSLEY     CLOUDY    34  32  93 SE13      29.72R WCI  25
LLOYDMINSTER   LGT SNOW  32  30  93 E12       29.78S VSB 1   WCI  23
PRINCE ALBERT  PTSUNNY   43  16  33 SE12      29.88S
REGINA         MOSUNNY   43  16  33 E13       29.80S
YORKTON        SUNNY     41  12  30 NE10G20   29.84S
N. BATTLEFORD  FLURRIES  32  32 100 E13G18    29.82R W



USA.gov is the U.S. government's official web portal to all federal, state and local government web resources and services.